This is the latest recevied weather packets stored in our database for station/object YO6SAY-10. If no packets are shown the sender has not sent any weather packets the latest 10 day(s).
| Time | Temp. | Humidity | Pressure | Rain* | Wind** | Luminosity | Snow |
|---|---|---|---|---|---|---|---|
| 1777697988 | 10.56° C | 47% | 955.2 hPa | - | - | - | - |
| 1777697088 | 10.56° C | 47% | 955.2 hPa | - | - | - | - |
| 1777696188 | 10.56° C | 47% | 955.1 hPa | - | - | - | - |
| 1777695288 | 10.56° C | 47% | 955.2 hPa | - | - | - | - |
| 1777694388 | 10.56° C | 48% | 955.1 hPa | - | - | - | - |
| 1777693488 | 10° C | 47% | 955.1 hPa | - | - | - | - |
| 1777692588 | 10° C | 48% | 955 hPa | - | - | - | - |
| 1777691687 | 10° C | 47% | 955.1 hPa | - | - | - | - |
| 1777690787 | 10° C | 48% | 955.1 hPa | - | - | - | - |
| 1777689887 | 10° C | 47% | 955 hPa | - | - | - | - |
| 1777688987 | 10° C | 48% | 955 hPa | - | - | - | - |
| 1777673685 | 10.56° C | 45% | 955.7 hPa | - | - | - | - |
| 1777667384 | 11.11° C | 44% | 955.9 hPa | - | - | - | - |
| 1777661083 | 11.11° C | 40% | 956 hPa | - | - | - | - |
| 1777659282 | 11.67° C | 39% | 955.7 hPa | - | - | - | - |
| 1777652079 | 12.22° C | 32% | 955.2 hPa | - | - | - | - |
| 1777649378 | 16.67° C | 31% | 955 hPa | - | - | - | - |
| 1777648477 | 16.67° C | 30% | 955.2 hPa | - | - | - | - |
| 1777647577 | 15.56° C | 31% | 955.1 hPa | - | - | - | - |
| 1777645777 | 17.22° C | 30% | 955.3 hPa | - | - | - | - |
| 1777644876 | 21.67° C | 30% | 955.3 hPa | - | - | - | - |
| 1777643976 | 27.78° C | 27% | 955.3 hPa | - | - | - | - |
| 1777642175 | 22.22° C | 30% | 955.5 hPa | - | - | - | - |
| 1777638575 | 22.78° C | 36% | 955.9 hPa | - | - | - | - |
| 1777637675 | 18.33° C | 39% | 955.9 hPa | - | - | - | - |
* Rain since midnight (hover to see other rain measurements)
** Current wind speed in m/s (hover to see current wind gust speed)